Location: Unspecified
(0.0000°N, 0.0000°E)
Time: 07:18:02
(UTC+00:00)

ISS - Pass Details

Date: 22 October 2019
Orbit: 417 x 420 km, 51.6° (Epoch: 27 May)

Event Time Altitude Azimuth Distance (km) Brightness Sun altitude
Exits shadow 04:47:37 14° 333° (NNW) 1,296 -1.6 -14.0°
Drops below altitude 10° 04:48:34 10° 347° (NNW) 1,507 -1.2 -13.7°
Sets 04:51:13 0° 9° (N) 2,373 0.1 -13.1°
